Location: Trout Lake
(45.9980°N, 121.5270°W)
Time: 20:26:31
(UTC-08:00)

Cosmos 2221 - Pass Details

Date: 06 December 2023
Orbit: 583 x 605 km, 82.5° (Epoch: 22 February)

Event Time Altitude Azimuth Distance (km) Brightness Sun altitude
Rises 17:52:30 0° 167° (SSE) 2,800 6.0 -15.2°
Reaches altitude 10° 17:54:48 10° 160° (SSE) 1,903 5.0 -15.6°
Maximum altitude 17:58:41 38° 92° (E) 907 2.9 -16.3°
Enters shadow 18:00:00 30° 52° (NE) 1,073 3.3 -16.5°
